User: anonymous   Login
Location: Unspecified
(0.0000°N, 0.0000°E)
Time: 19:58:57
(UTC+00:00)
Language:

ELEKTRO-L - Orbit

View from above orbital plane
View from above orbital plane
View from above satellite
View from above satellite

Ground track
Ground track

The orbit data is extracted from the following two-line orbital elements,

1 37344U 11001A   17263.47476486 -.00000255  00000-0  00000+0 0  9991
2 37344   2.6275  77.5174 0003280 266.6778 108.2013  1.00166070 24463
Epoch (UTC): 20 September 2017 11:23:39
Eccentricity: 0.0003280
inclination: 2.6275°
perigee height: 35802 km
apogee height: 35830 km
right ascension of ascending node: 77.5174°
argument of perigee: 266.6778°
revolutions per day: 1.00166070
mean anomaly at epoch: 108.2013°
orbit number at epoch: 2446

The dashed part of the orbit path shows where the satellite is in the earth's shadow,  

DLR